Location: Kalispell
(48.1967°N, 114.3128°W)
Time: 06:48:15
(UTC-07:00)

Amateur Radio Satellites - All Passes

Search period start: 11 December 2016 06:18
Search period end: 12 December 2016 06:18
Location: Kalispell, 48.1967°N, 114.3128°W

Satellite Date Start Highest point End Downlink Frequencies (MHz)
Time Altitude Azimuth
AIST 2 11 Dec 06:20:28 06:22:35 14° 110° (ESE) 06:24:42 435.215
Cosmos 2491 11 Dec 06:25:08 06:33:25 49° 88° (E) 06:41:41 435.465 / 435.565
HORYU 2 11 Dec 06:46:01 06:50:19 50° 290° (WNW) 06:54:35 437.375
BRITE-PL 11 Dec 06:57:46 07:02:46 37° 294° (WNW) 07:07:54 437.365/2234.400
CUTE-I 11 Dec 06:58:13 07:03:33 64° 102° (ESE) 07:08:48 437.470
NOAA 15 11 Dec 07:01:55 07:07:13 74° 104° (ESE) 07:12:31 137.62
Cosmos 2504 11 Dec 07:10:04 07:18:54 84° 263° (W) 07:27:09 435.465 / 435.565
BEESAT 3 11 Dec 07:15:59 07:16:43 10° 340° (NNW) 07:17:27 437.485
STRAND 1 11 Dec 07:19:55 07:25:00 63° 258° (WSW) 07:30:07 437.568
RS-15 11 Dec 07:20:45 07:32:26 70° 119° (ESE) 07:44:38 29.354- 29.394
DOVE 4 11 Dec 07:22:22 07:27:41 86° 285° (WNW) 07:32:47 437.250
Cubesat XI-IV 11 Dec 07:26:09 07:31:31 79° 287° (WNW) 07:36:50 437.490
AIST 1 11 Dec 07:30:08 07:34:01 31° 270° (W) 07:37:52
GOMX 1 11 Dec 07:42:02 07:46:51 32° 296° (WNW) 07:51:38 467.674
LilacSat-2 11 Dec 07:44:41 07:48:03 31° 291° (WNW) 07:51:23 437.200
YUBILEINY 11 Dec 07:48:05 07:55:29 32° 279° (W) 08:02:53 435.215
AIST 2 11 Dec 07:56:20 08:00:27 78° 308° (NW) 08:04:40 435.215
NOAA 18 11 Dec 07:56:52 08:02:24 71° 289° (WNW) 08:07:53 137.9125
AAUSAT CUBESAT 2 11 Dec 07:57:38 07:59:44 13° 89° (E) 08:01:49 437.432
CINEMA 3 11 Dec 07:58:19 08:03:03 60° 100° (E) 08:07:31 145.822/145.860
CUTE 1.7 + AOD 2 11 Dec 08:01:20 08:05:18 38° 97° (E) 08:09:15 437.475
AO-85 11 Dec 08:03:28 08:06:31 20° 32° (NNE) 08:09:29 145.980
PRISM 11 Dec 08:04:44 08:08:16 29° 66° (ENE) 08:11:51 437.425
AO-7 11 Dec 08:05:53 08:09:05 13° 330° (NNW) 08:12:17 29.400- 29.500
HO-68 11 Dec 08:07:27 08:14:26 49° 100° (E) 08:21:21 435.675
UWE-3 11 Dec 08:08:22 08:10:21 13° 87° (E) 08:12:17 435.000/436.395/437.385
CANX-2 11 Dec 08:20:27 08:24:41 70° 101° (ESE) 08:28:55 2200.000
Cosmos 2491 11 Dec 08:22:07 08:30:24 44° 291° (WNW) 08:38:41 435.465 / 435.565
COMPASS 1 11 Dec 08:32:36 08:36:30 38° 97° (E) 08:40:25 437.405
SEEDS 11 Dec 08:33:27 08:37:36 57° 100° (E) 08:41:44 437.485
ZACube-1 11 Dec 08:35:33 08:38:03 15° 89° (E) 08:40:32 437.345
CUTE-I 11 Dec 08:39:05 08:43:09 23° 301° (WNW) 08:47:12 437.470
FUNcube-1 11 Dec 08:39:44 08:42:16 16° 90° (E) 08:44:46 145.935
NOAA 15 11 Dec 08:42:44 08:46:27 20° 303° (WNW) 08:50:11 137.62
CUSAT 1 11 Dec 08:48:34 08:50:42 21° 95° (E) 08:52:45 437.405
UNISAT 6 11 Dec 08:49:30 08:53:12 24° 64° (ENE) 08:56:51 437.425
DOVE 4 11 Dec 09:01:31 09:04:33 16° 304° (NW) 09:07:33 437.250
Oscar 11 11 Dec 09:01:50 09:05:27 26° 94° (E) 09:09:03 145.826/435.025
Cosmos 2504 11 Dec 09:05:04 09:10:53 20° 286° (WNW) 09:16:32 435.465 / 435.565
Cubesat XI-IV 11 Dec 09:07:54 09:10:45 15° 307° (NW) 09:13:36 437.490
CUBEBUG 2 11 Dec 09:13:11 09:17:35 89° 103° (ESE) 09:21:48 437.445
TIGRISAT 11 Dec 09:16:50 09:21:09 39° 68° (ENE) 09:25:23 435.000
ANTELSAT 11 Dec 09:19:48 09:24:11 43° 69° (ENE) 09:28:32 437.575/2403.000
AAUSAT CUBESAT 2 11 Dec 09:31:31 09:35:38 66° 287° (WNW) 09:39:46 437.432
RS-15 11 Dec 09:34:01 09:45:42 52° 327° (NNW) 09:57:46 29.354- 29.394
CINEMA 3 11 Dec 09:36:19 09:39:43 20° 300° (WNW) 09:43:00 145.822/145.860
AIST 2 11 Dec 09:36:49 09:39:37 17° 330° (NNW) 09:42:28 435.215
CUTE 1.7 + AOD 2 11 Dec 09:37:33 09:40:58 24° 295° (WNW) 09:44:21 437.475
DELFI C3 11 Dec 09:38:21 09:41:32 22° 93° (E) 09:44:41 145.870
NOAA 18 11 Dec 09:39:19 09:42:07 14° 309° (NW) 09:44:56 137.9125
PRISM 11 Dec 09:39:57 09:43:31 29° 264° (W) 09:47:09 437.425
UWE-3 11 Dec 09:43:04 09:47:21 69° 286° (WNW) 09:51:29 435.000/436.395/437.385
AO-85 11 Dec 09:43:24 09:47:25 74° 235° (SW) 09:51:17 145.980
NANOSAT C BR1 11 Dec 09:48:11 09:49:25 11° 56° (NE) 09:50:38 145.865
Cosmos 2499 11 Dec 09:52:00 09:58:34 23° 57° (ENE) 10:04:48 435.465 / 435.565
HO-68 11 Dec 09:55:26 10:02:04 41° 300° (WNW) 10:08:40 435.675
CANX-2 11 Dec 09:57:41 10:00:02 15° 300° (WNW) 10:02:23 2200.000
QB50P2 11 Dec 09:58:28 10:01:02 16° 60° (ENE) 10:03:35 145.880/145.840
POLYITAN 1 11 Dec 09:58:56 10:01:24 15° 59° (ENE) 10:03:52 437.675
DUCHIFAT 1 11 Dec 10:05:49 10:08:16 15° 59° (ENE) 10:10:42 145.980
COMPASS 1 11 Dec 10:08:33 10:11:53 23° 295° (WNW) 10:15:12 437.405
QB50P1 11 Dec 10:09:22 10:12:20 19° 61° (ENE) 10:15:18 145.935-145.965
SEEDS 11 Dec 10:10:09 10:12:54 17° 298° (WNW) 10:15:38 437.485
ZACube-1 11 Dec 10:10:36 10:14:45 57° 288° (WNW) 10:18:48 437.345
FUNcube-1 11 Dec 10:14:47 10:18:54 56° 288° (WNW) 10:22:57 145.935
JAS-2 11 Dec 10:17:48 10:23:22 42° 67° (ENE) 10:28:27 435.910
UNISAT 6 11 Dec 10:25:11 10:29:39 46° 261° (W) 10:34:05 437.425
Cosmos 2491 11 Dec 10:27:56 10:30:13 11° 318° (NW) 10:32:31 435.465 / 435.565
GONETS M04 11 Dec 10:29:04 10:36:51 34° 65° (ENE) 10:44:36
POPSAT HIP 1 11 Dec 10:30:40 10:34:20 28° 66° (ENE) 10:37:59 437.405
CUSAT 1 11 Dec 10:31:43 10:32:39 11° 293° (WNW) 10:33:34 437.405
DANDE 11 Dec 10:32:02 10:35:41 62° 282° (WNW) 10:38:37 436.750
PCSat 11 Dec 10:33:11 10:38:13 42° 115° (ESE) 10:43:19 145.827
BEESAT 3 11 Dec 10:33:21 10:35:38 15° 28° (NNE) 10:37:56 437.485
Oscar 11 11 Dec 10:37:43 10:41:40 36° 292° (WNW) 10:45:36 145.826/435.025
BUGSAT 1 11 Dec 10:38:27 10:40:34 14° 58° (ENE) 10:42:41 437.445
HUMSAT D 11 Dec 10:45:09 10:49:13 61° 101° (ESE) 10:53:14 437.325/437.525
CUBEBUG 2 11 Dec 10:51:43 10:53:30 12° 303° (WNW) 10:55:15 437.445
TIGRISAT 11 Dec 10:53:57 10:57:54 27° 266° (W) 11:01:50 435.000
ANTELSAT 11 Dec 10:57:15 11:01:03 24° 267° (W) 11:04:48 437.575/2403.000
DELFI C3 11 Dec 11:12:46 11:16:26 36° 291° (WNW) 11:20:06 145.870
BEESAT 2 11 Dec 11:15:20 11:17:59 17° 30° (NNE) 11:20:38 435.950
NANOSAT C BR1 11 Dec 11:20:09 11:24:25 81° 74° (ENE) 11:28:42 145.865
QB50P2 11 Dec 11:32:04 11:36:20 67° 258° (WSW) 11:40:38 145.880/145.840
POLYITAN 1 11 Dec 11:32:24 11:36:41 71° 258° (WSW) 11:40:59 437.675
DUCHIFAT 1 11 Dec 11:39:11 11:43:26 70° 258° (WSW) 11:47:42 145.980
AISAT 11 Dec 11:42:12 11:45:14 18° 91° (E) 11:48:14 437.250
QB50P1 11 Dec 11:43:32 11:47:43 55° 259° (W) 11:51:58 145.935-145.965
Cosmos 2499 11 Dec 11:44:28 11:53:06 89° 81° (E) 12:01:02 435.465 / 435.565
AO-7 11 Dec 11:45:13 11:46:45 11° 26° (NNE) 11:48:16 29.400- 29.500
HO-68 11 Dec 11:46:02 11:47:55 11° 322° (NW) 11:49:48 435.675
RS-15 11 Dec 11:50:41 12:01:45 36° 360° (N) 12:12:54 29.354- 29.394
CUBEBUG 1 11 Dec 11:51:23 11:55:18 29° 95° (E) 11:59:10 437.445
ESTCUBE 1 11 Dec 12:00:32 12:05:00 56° 101° (E) 12:09:28 437.505/2401.250
50 SAT 11 Dec 12:01:05 12:03:35 18° 93° (E) 12:06:05 437.505
JAS-2 11 Dec 12:03:10 12:08:34 33° 264° (W) 12:13:33 435.910
Oscar 19 11 Dec 12:04:52 12:09:13 29° 62° (ENE) 12:13:36 437.125/150
POPSAT HIP 1 11 Dec 12:06:07 12:10:01 33° 264° (W) 12:13:56 437.405
SPROUT 11 Dec 12:06:15 12:09:22 19° 91° (E) 12:12:29 437.525
UKube-1 11 Dec 12:07:43 12:09:20 12° 88° (E) 12:10:56 .
BEESAT 3 11 Dec 12:10:04 12:14:03 64° 49° (NE) 12:18:00 437.485
BUGSAT 1 11 Dec 12:11:05 12:15:20 80° 255° (WSW) 12:19:38 437.445
DX 1 11 Dec 12:11:37 12:14:35 18° 91° (E) 12:17:33 434.975-435.025
PCSat 11 Dec 12:16:35 12:21:40 40° 315° (NW) 12:26:47 145.827
VELOX 1 11 Dec 12:17:53 12:22:02 36° 97° (E) 12:26:09 145.980
HUMSAT D 11 Dec 12:21:58 12:24:23 15° 299° (WNW) 12:26:47 437.325/437.525
GONETS M04 11 Dec 12:25:42 12:34:17 65° 268° (W) 12:42:53
Gurwin Techsat 1B 11 Dec 12:49:15 12:54:05 37° 65° (ENE) 12:58:57 435.225
ITAMSAT 1 11 Dec 12:50:03 12:51:36 11° 51° (NE) 12:53:10 435.822/435.867
BEESAT 2 11 Dec 12:52:22 12:56:26 78° 51° (NE) 13:00:28 435.950
AIST 2 11 Dec 12:59:03 13:00:19 11° 19° (NNE) 13:01:34 435.215
NANOSAT C BR1 11 Dec 12:59:17 13:00:42 11° 273° (W) 13:02:08 145.865
TISAT 1 11 Dec 13:06:51 13:09:12 14° 89° (E) 13:11:31 437.305
AISAT 11 Dec 13:17:39 13:22:04 57° 289° (WNW) 13:26:26 437.250
CUBEBUG 1 11 Dec 13:27:35 13:31:36 33° 293° (WNW) 13:35:34 437.445
AO-7 11 Dec 13:29:53 13:36:54 32° 51° (NE) 13:43:56 29.400- 29.500
50 SAT 11 Dec 13:33:42 13:37:00 36° 290° (WNW) 13:40:18 437.505
ESTCUBE 1 11 Dec 13:38:11 13:41:26 20° 299° (WNW) 13:44:40 437.505/2401.250
Cosmos 2499 11 Dec 13:39:01 13:44:59 22° 284° (WNW) 13:50:41 435.465 / 435.565
SPROUT 11 Dec 13:41:25 13:45:33 47° 290° (WNW) 13:49:39 437.525
UKube-1 11 Dec 13:41:35 13:45:57 81° 286° (WNW) 13:50:17 .
Oscar 19 11 Dec 13:43:25 13:48:20 45° 261° (W) 13:53:18 437.125/150
DX 1 11 Dec 13:46:48 13:51:07 55° 289° (WNW) 13:55:24 434.975-435.025
BEESAT 3 11 Dec 13:48:44 13:51:13 16° 248° (WSW) 13:53:43 437.485
VELOX 1 11 Dec 13:54:34 13:58:23 28° 295° (WNW) 14:02:11 145.980
PCSat 11 Dec 14:03:48 14:06:37 14° 339° (NNW) 14:09:26 145.827
RS-15 11 Dec 14:05:46 14:17:50 52° 33° (NNE) 14:29:40 29.354- 29.394
SWISSCUBE 11 Dec 14:20:00 14:23:31 20° 92° (E) 14:27:02 437.505
BEESAT 11 Dec 14:23:24 14:26:52 20° 91° (E) 14:30:19 436.000
ITAMSAT 1 11 Dec 14:24:56 14:30:04 61° 70° (ENE) 14:35:12 435.822/435.867
GONETS M04 11 Dec 14:25:17 14:29:16 14° 290° (WNW) 14:33:15
O/OREOS (USA 219) 11 Dec 14:27:07 14:30:01 17° 100° (E) 14:32:54 437.305
Gurwin Techsat 1B 11 Dec 14:29:11 14:34:03 36° 264° (W) 14:38:57 435.225
BEESAT 2 11 Dec 14:31:43 14:33:40 13° 249° (WSW) 14:35:36 435.950
AIST 2 11 Dec 14:36:10 14:40:02 33° 41° (NE) 14:43:54 435.215
AUBIESAT-1 11 Dec 14:38:11 14:40:51 15° 94° (E) 14:43:26 437.475
TISAT 1 11 Dec 14:41:04 14:45:16 63° 287° (WNW) 14:49:24 437.305
ITUPSAT 1 11 Dec 14:54:39 14:59:04 36° 97° (E) 15:03:27 437.325
M-CUBED/EXP-1 PRIME 11 Dec 14:54:55 14:58:53 27° 99° (E) 15:02:38 437.505
ISS 11 Dec 15:09:13 15:12:18 39° 147° (SSE) 15:15:25 145.825
UKube-1 11 Dec 15:19:48 15:21:14 11° 305° (NW) 15:22:41 .
AO-7 11 Dec 15:20:40 15:28:59 77° 253° (WSW) 15:37:23 29.400- 29.500
GOMX 1 11 Dec 15:41:17 15:42:48 11° 51° (NE) 15:44:20 467.674
PCSat 11 Dec 15:51:42 15:52:35 10° 6° (N) 15:53:28 145.827
KKS-1 11 Dec 15:56:21 15:59:25 18° 91° (E) 16:02:27 437.445
SWISSCUBE 11 Dec 15:57:00 16:01:38 54° 290° (WNW) 16:06:16 437.505
BEESAT 11 Dec 16:00:20 16:05:00 56° 290° (WNW) 16:09:39 436.000
O/OREOS (USA 219) 11 Dec 16:04:25 16:08:56 63° 299° (WNW) 16:13:27 437.305
ITAMSAT 1 11 Dec 16:06:03 16:09:57 21° 269° (W) 16:13:51 435.822/435.867
MOZHAYETS 4 11 Dec 16:10:44 16:15:14 57° 100° (E) 16:19:44
AUBIESAT-1 11 Dec 16:11:11 16:15:45 70° 292° (WNW) 16:20:04 437.475
HORYU 2 11 Dec 16:11:20 16:15:12 29° 65° (ENE) 16:19:03 437.375
NOAA 18 11 Dec 16:11:28 16:12:29 10° 47° (NE) 16:13:29 137.9125
AIST 2 11 Dec 16:14:39 16:18:34 37° 241° (WSW) 16:22:28 435.215
RS-15 11 Dec 16:18:53 16:31:09 71° 240° (WSW) 16:43:02 29.354- 29.394
M-CUBED/EXP-1 PRIME 11 Dec 16:29:03 16:33:27 41° 298° (WNW) 16:37:38 437.505
Cosmos 2491 11 Dec 16:30:41 16:38:10 30° 62° (ENE) 16:45:36 435.465 / 435.565
CUBESAT XI-V 11 Dec 16:31:19 16:34:17 16° 89° (E) 16:37:15 437.345
ITUPSAT 1 11 Dec 16:32:39 16:36:49 31° 296° (WNW) 16:40:58 437.325
BRITE-PL 11 Dec 16:33:47 16:38:13 57° 71° (ENE) 16:43:03 437.365/2234.400
CUTE-I 11 Dec 16:45:12 16:49:29 25° 60° (ENE) 16:53:45 437.470
ISS 11 Dec 16:45:30 16:48:46 57° 346° (NNW) 16:52:01 145.825
NOAA 15 11 Dec 16:47:12 16:51:33 27° 61° (ENE) 16:55:55 137.62
DOVE 4 11 Dec 16:54:35 16:58:27 22° 60° (ENE) 17:02:26 437.250
LilacSat-2 11 Dec 16:56:14 16:59:07 21° 65° (ENE) 17:02:00 437.200
HO-68 11 Dec 16:56:53 17:00:19 14° 42° (NE) 17:03:44 435.675
YUBILEINY 11 Dec 17:04:39 17:09:05 15° 71° (ENE) 17:13:31 435.215
Cubesat XI-IV 11 Dec 17:12:23 17:17:19 39° 65° (ENE) 17:22:17 437.490
GOMX 1 11 Dec 17:15:00 17:19:46 63° 72° (ENE) 17:24:54 467.674
AO-7 11 Dec 17:17:52 17:23:08 18° 273° (W) 17:28:27 29.400- 29.500
STARS 11 Dec 17:20:08 17:24:30 56° 101° (E) 17:28:48 437.465
CINEMA 3 11 Dec 17:28:34 17:31:05 14° 56° (NE) 17:33:37 145.822/145.860
KKS-1 11 Dec 17:31:56 17:36:20 56° 289° (WNW) 17:40:42 437.445
PCSat 11 Dec 17:34:14 17:38:15 20° 32° (NNE) 17:42:15 145.827
CANX-2 11 Dec 17:44:56 17:45:26 10° 56° (ENE) 17:45:57 2200.000
NOAA 18 11 Dec 17:46:34 17:51:56 51° 67° (ENE) 17:57:18 137.9125
AUBIESAT-1 11 Dec 17:47:29 17:49:17 12° 312° (NW) 17:51:05 437.475
O/OREOS (USA 219) 11 Dec 17:47:34 17:49:18 12° 320° (NW) 17:51:02 437.305
HORYU 2 11 Dec 17:47:34 17:51:39 35° 263° (W) 17:55:47 437.375
MOZHAYETS 4 11 Dec 17:48:45 17:52:02 20° 299° (WNW) 17:55:18
Cosmos 2504 11 Dec 18:02:22 18:07:43 18° 73° (ENE) 18:13:09 435.465 / 435.565
CUBESAT XI-V 11 Dec 18:07:28 18:12:07 66° 287° (WNW) 18:16:46 437.345
BRITE-PL 11 Dec 18:14:01 18:17:12 19° 272° (W) 18:20:34 437.365/2234.400
SO-50 11 Dec 18:18:27 18:21:41 18° 112° (ESE) 18:24:54 436.795
ISS 11 Dec 18:22:23 18:25:35 45° 5° (N) 18:28:48 145.825
CUTE-I 11 Dec 18:23:53 18:29:10 58° 259° (W) 18:34:28 437.470
NOAA 15 11 Dec 18:26:00 18:31:05 50° 260° (W) 18:36:12 137.62
Cosmos 2491 11 Dec 18:27:10 18:35:51 73° 266° (W) 18:44:31 435.465 / 435.565
AIST 1 11 Dec 18:27:13 18:29:33 14° 83° (E) 18:31:54
LilacSat-2 11 Dec 18:29:38 18:33:12 37° 262° (W) 18:36:47 437.200
DOVE 4 11 Dec 18:30:42 18:35:39 62° 260° (W) 18:40:52 437.250
RS-15 11 Dec 18:33:27 18:41:16 20° 264° (W) 18:48:57 29.354- 29.394
HO-68 11 Dec 18:39:36 18:46:29 53° 64° (ENE) 18:53:25 435.675
CUBEBUG 2 11 Dec 18:39:40 18:42:35 17° 60° (ENE) 18:45:28 437.445
AAUSAT CUBESAT 2 11 Dec 18:51:25 18:53:50 15° 61° (ENE) 18:56:15 437.432
Cubesat XI-IV 11 Dec 18:52:33 18:57:26 35° 264° (W) 19:02:20 437.490
GOMX 1 11 Dec 18:54:57 18:58:23 19° 273° (W) 19:01:59 467.674
YUBILEINY 11 Dec 18:55:30 19:04:07 68° 93° (E) 19:12:48 435.215
CUTE 1.7 + AOD 2 11 Dec 18:57:13 19:01:11 42° 70° (ENE) 19:05:10 437.475
STARS 11 Dec 18:57:20 19:00:28 19° 299° (WNW) 19:03:34 437.465
CINEMA 3 11 Dec 19:02:25 19:07:26 81° 74° (ENE) 19:12:29 145.822/145.860
UWE-3 11 Dec 19:08:04 19:11:20 20° 62° (ENE) 19:14:33 435.000/436.395/437.385
CUSAT 1 11 Dec 19:13:25 19:17:02 32° 74° (ENE) 19:21:36 437.405
CANX-2 11 Dec 19:16:21 19:20:32 77° 75° (ENE) 19:24:46 2200.000
PCSat 11 Dec 19:17:07 19:22:35 75° 54° (NE) 19:28:00 145.827
COMPASS 1 11 Dec 19:26:32 19:30:24 40° 70° (ENE) 19:34:17 437.405
STRAND 1 11 Dec 19:26:51 19:31:28 33° 96° (E) 19:36:03 437.568
NOAA 18 11 Dec 19:28:09 19:32:50 28° 266° (W) 19:37:34 137.9125
SEEDS 11 Dec 19:28:16 19:32:22 62° 73° (ENE) 19:36:30 437.485
ZACube-1 11 Dec 19:34:20 19:37:42 21° 63° (ENE) 19:41:03 437.345
FUNcube-1 11 Dec 19:38:13 19:41:36 22° 63° (ENE) 19:44:56 145.935
CUBESAT XI-V 11 Dec 19:47:53 19:48:36 10° 306° (NW) 19:49:20 437.345
Cosmos 2504 11 Dec 19:50:59 19:59:32 75° 95° (E) 20:08:27 435.465 / 435.565
SO-50 11 Dec 19:56:55 20:01:40 73° 310° (NW) 20:06:22 436.795
ISS 11 Dec 19:58:56 20:02:15 76° 205° (SSW) 20:05:33 145.825
Oscar 11 11 Dec 19:59:53 20:03:40 31° 67° (ENE) 20:07:29 145.826/435.025
AIST 1 11 Dec 20:02:18 20:06:36 63° 282° (WNW) 20:10:58
CUBEBUG 2 11 Dec 20:13:57 20:18:40 75° 258° (WSW) 20:23:20 437.445
AAUSAT CUBESAT 2 11 Dec 20:24:47 20:28:50 63° 258° (WSW) 20:32:57 437.432
Cosmos 2491 11 Dec 20:26:14 20:31:05 16° 288° (WNW) 20:35:55 435.465 / 435.565
DELFI C3 11 Dec 20:27:36 20:30:37 22° 65° (ENE) 20:33:40 145.870
HO-68 11 Dec 20:27:54 20:34:26 37° 264° (W) 20:41:02 435.675
CUTE 1.7 + AOD 2 11 Dec 20:34:02 20:37:13 21° 268° (W) 20:40:25 437.475
CINEMA 3 11 Dec 20:42:16 20:45:09 15° 273° (W) 20:48:02 145.822/145.860
UWE-3 11 Dec 20:42:51 20:47:25 58° 260° (W) 20:51:54 435.000/436.395/437.385
YUBILEINY 11 Dec 20:54:01 21:01:38 33° 296° (WNW) 21:09:23 435.215
CUSAT 1 11 Dec 20:55:19 20:58:53 28° 264° (W) 21:03:20 437.405
CANX-2 11 Dec 20:55:27 20:56:57 12° 273° (W) 20:58:27 2200.000
PCSat 11 Dec 21:01:33 21:05:24 20° 253° (WSW) 21:09:13 145.827
COMPASS 1 11 Dec 21:02:58 21:06:07 21° 268° (W) 21:09:17 437.405
DANDE 11 Dec 21:03:27 21:06:29 73° 259° (W) 21:10:19 436.750
STRAND 1 11 Dec 21:06:00 21:10:41 37° 295° (WNW) 21:15:20 437.568
SEEDS 11 Dec 21:06:14 21:08:29 14° 271° (W) 21:10:46 437.485
ZACube-1 11 Dec 21:09:20 21:13:42 49° 261° (W) 21:18:01 437.345
FUNcube-1 11 Dec 21:13:13 21:17:33 48° 261° (W) 21:21:50 145.935
PRISM 11 Dec 21:17:16 21:20:53 28° 95° (E) 21:24:29 437.425
ESTCUBE 1 11 Dec 21:30:09 21:31:41 12° 55° (NE) 21:33:14 437.505/2401.250
Oscar 11 11 Dec 21:36:01 21:39:48 30° 265° (W) 21:43:37 145.826/435.025
ISS 11 Dec 21:36:17 21:38:19 15° 223° (SW) 21:40:20 145.825
HUMSAT D 11 Dec 21:39:23 21:43:32 67° 74° (ENE) 21:47:39 437.325/437.525
SO-50 11 Dec 21:39:31 21:42:55 19° 331° (NNW) 21:46:17 436.795
Cosmos 2504 11 Dec 21:46:25 21:53:51 31° 298° (WNW) 22:01:31 435.465 / 435.565
DELFI C3 11 Dec 22:01:35 22:05:14 37° 263° (W) 22:08:56 145.870
UNISAT 6 11 Dec 22:13:28 22:17:13 27° 94° (E) 22:20:55 437.425
Cosmos 2499 11 Dec 22:35:52 22:40:36 16° 71° (ENE) 22:45:23 435.465 / 435.565
50 SAT 11 Dec 22:40:27 22:42:21 14° 62° (ENE) 22:44:16 437.505
TIGRISAT 11 Dec 22:41:04 22:45:18 48° 99° (E) 22:49:26 435.000
AISAT 11 Dec 22:42:40 22:46:18 25° 63° (ENE) 22:49:57 437.250
ANTELSAT 11 Dec 22:44:16 22:48:34 55° 100° (E) 22:52:46 437.575/2403.000
CUBEBUG 1 11 Dec 22:50:30 22:54:34 38° 68° (ENE) 22:58:40 437.445
PRISM 11 Dec 22:52:28 22:56:11 32° 293° (WNW) 22:59:53 437.425
O/OREOS (USA 219) 11 Dec 22:54:12 22:55:39 11° 39° (NE) 22:57:06 437.305
SPROUT 11 Dec 23:02:57 23:06:26 24° 64° (ENE) 23:09:56 437.525
ESTCUBE 1 11 Dec 23:03:16 23:07:44 79° 75° (ENE) 23:12:15 437.505/2401.250
UKube-1 11 Dec 23:05:04 23:07:56 18° 60° (ENE) 23:10:48 .
JAS-2 11 Dec 23:07:18 23:11:28 23° 93° (E) 23:15:49 435.910
DX 1 11 Dec 23:10:18 23:13:51 25° 63° (ENE) 23:17:25 434.975-435.025
QB50P2 11 Dec 23:14:29 23:17:02 15° 90° (E) 23:19:34 145.880/145.840
POLYITAN 1 11 Dec 23:14:57 23:17:21 15° 89° (E) 23:19:42 437.675
HUMSAT D 11 Dec 23:17:36 23:19:35 13° 271° (W) 23:21:34 437.325/437.525
VELOX 1 11 Dec 23:18:18 23:22:34 49° 70° (ENE) 23:26:53 145.980
DUCHIFAT 1 11 Dec 23:20:56 23:23:15 14° 89° (E) 23:25:33 145.980
SO-50 11 Dec 23:24:22 23:25:13 10° 356° (N) 23:26:04 436.795
QB50P1 11 Dec 23:25:18 23:28:18 19° 91° (E) 23:31:16 145.935-145.965
GONETS M04 11 Dec 23:35:41 23:43:05 33° 82° (E) 23:50:29
PHONESAT 2.4 11 Dec 23:38:00 23:39:37 15° 173° (S) 23:41:13 2401.200-2431.200
POPSAT HIP 1 11 Dec 23:46:59 23:50:43 29° 95° (E) 23:54:26 437.405
UNISAT 6 11 Dec 23:50:03 23:54:00 33° 293° (WNW) 23:57:51 437.425
BUGSAT 1 11 Dec 23:51:24 23:52:51 12° 88° (E) 23:54:18 437.445
TISAT 1 12 Dec 00:01:39 00:04:38 19° 61° (ENE) 00:07:36 437.305
AO-85 12 Dec 00:02:12 00:05:04 16° 112° (ESE) 00:07:49 145.980
50 SAT 12 Dec 00:11:51 00:15:16 49° 260° (W) 00:18:42 437.505
M-CUBED/EXP-1 PRIME 12 Dec 00:13:23 00:14:14 10° 46° (NE) 00:15:06 437.505
AISAT 12 Dec 00:18:22 00:22:34 41° 262° (W) 00:26:49 437.250
TIGRISAT 12 Dec 00:18:27 00:21:41 21° 298° (WNW) 00:24:52 435.000
ANTELSAT 12 Dec 00:21:52 00:24:53 19° 299° (WNW) 00:27:52 437.575/2403.000
Cosmos 2499 12 Dec 00:23:23 00:32:01 68° 93° (E) 00:40:49 435.465 / 435.565
CUBEBUG 1 12 Dec 00:27:18 00:30:57 25° 266° (W) 00:34:38 437.445
ITUPSAT 1 12 Dec 00:31:26 00:32:25 11° 52° (NE) 00:33:25 437.325
O/OREOS (USA 219) 12 Dec 00:31:36 00:36:04 60° 61° (ENE) 00:40:29 437.305
NANOSAT C BR1 12 Dec 00:36:27 00:40:42 89° 297° (WNW) 00:44:55 145.865
SPROUT 12 Dec 00:38:07 00:42:10 39° 262° (W) 00:46:15 437.525
UKube-1 12 Dec 00:39:17 00:43:32 61° 259° (WSW) 00:47:51 .
ESTCUBE 1 12 Dec 00:43:09 00:45:08 13° 272° (W) 00:47:06 437.505/2401.250
DX 1 12 Dec 00:45:44 00:49:50 40° 261° (W) 00:54:00 434.975-435.025
QB50P2 12 Dec 00:49:02 00:53:13 59° 288° (WNW) 00:57:22 145.880/145.840
POLYITAN 1 12 Dec 00:49:21 00:53:33 62° 288° (WNW) 00:57:42 437.675
JAS-2 12 Dec 00:51:51 00:56:55 53° 290° (WNW) 01:02:17 435.910
DUCHIFAT 1 12 Dec 00:55:11 00:59:22 63° 287° (WNW) 01:03:29 145.980
VELOX 1 12 Dec 00:56:03 00:59:18 20° 268° (W) 01:02:35 145.980
QB50P1 12 Dec 01:00:15 01:04:21 48° 289° (WNW) 01:08:24 145.935-145.965
SO-50 12 Dec 01:05:04 01:07:41 15° 21° (NNE) 01:10:17 436.795
PHONESAT 2.4 12 Dec 01:12:40 01:14:09 14° 190° (S) 01:15:37 2401.200-2431.200
POPSAT HIP 1 12 Dec 01:22:45 01:26:29 30° 293° (WNW) 01:30:10 437.405
BUGSAT 1 12 Dec 01:24:35 01:28:47 76° 284° (WNW) 01:32:52 437.445
AUBIESAT-1 12 Dec 01:25:45 01:29:43 33° 60° (ENE) 01:33:49 437.475
SWISSCUBE 12 Dec 01:29:34 01:33:53 35° 66° (ENE) 01:38:13 437.505
GONETS M04 12 Dec 01:30:44 01:39:21 64° 284° (WNW) 01:48:01
BEESAT 12 Dec 01:32:54 01:37:11 34° 66° (ENE) 01:41:30 436.000
TISAT 1 12 Dec 01:35:44 01:39:53 53° 259° (W) 01:44:06 437.305
AO-85 12 Dec 01:40:11 01:45:01 83° 308° (NW) 01:49:29 145.980
MOZHAYETS 4 12 Dec 01:42:10 01:43:57 12° 56° (NE) 01:45:45
M-CUBED/EXP-1 PRIME 12 Dec 01:43:24 01:47:41 57° 65° (ENE) 01:52:15 437.505
Oscar 19 12 Dec 01:50:53 01:55:56 48° 99° (E) 02:00:57 437.125/150
ITUPSAT 1 12 Dec 02:04:38 02:09:21 64° 71° (ENE) 02:14:06 437.325
O/OREOS (USA 219) 12 Dec 02:12:05 02:14:59 17° 260° (W) 02:17:53 437.305
NANOSAT C BR1 12 Dec 02:14:11 02:15:45 12° 303° (WNW) 02:17:19 145.865
Cosmos 2499 12 Dec 02:17:59 02:25:49 35° 296° (WNW) 02:33:45 435.465 / 435.565
ITAMSAT 1 12 Dec 02:35:20 02:38:26 16° 89° (E) 02:41:31 435.822/435.867
Gurwin Techsat 1B 12 Dec 02:40:56 02:46:16 69° 103° (ESE) 02:51:33 435.225
SO-50 12 Dec 02:44:51 02:49:17 46° 44° (NE) 02:53:36 436.795
STARS 12 Dec 02:47:10 02:48:38 12° 55° (NE) 02:50:07 437.465
KKS-1 12 Dec 02:57:30 03:01:14 26° 64° (ENE) 03:04:59 437.445
AUBIESAT-1 12 Dec 03:00:07 03:04:04 33° 259° (W) 03:08:13 437.475
BUGSAT 1 12 Dec 03:03:02 03:03:22 10° 305° (NW) 03:03:42 437.445
SWISSCUBE 12 Dec 03:07:27 03:11:41 31° 264° (W) 03:15:57 437.505
YUBILEINY 12 Dec 03:07:56 03:09:25 10° 40° (NE) 03:10:54 435.215
BEESAT 12 Dec 03:10:42 03:14:58 32° 264° (W) 03:19:16 436.000
MOZHAYETS 4 12 Dec 03:15:48 03:20:23 81° 75° (ENE) 03:24:58
AO-7 12 Dec 03:18:36 03:25:41 29° 93° (E) 03:32:43 29.400- 29.500
M-CUBED/EXP-1 PRIME 12 Dec 03:19:22 03:22:31 19° 265° (W) 03:25:48 437.505
AO-85 12 Dec 03:22:43 03:26:03 19° 328° (NNW) 03:29:13 145.980
Oscar 19 12 Dec 03:30:39 03:35:02 28° 298° (WNW) 03:39:23 437.125/150
GONETS M04 12 Dec 03:33:06 03:38:17 17° 310° (NW) 03:43:28
CUBESAT XI-V 12 Dec 03:37:53 03:41:34 24° 63° (ENE) 03:45:17 437.345
BEESAT 3 12 Dec 03:40:50 03:44:19 32° 118° (ESE) 03:47:51 437.485
ITUPSAT 1 12 Dec 03:44:29 03:47:38 17° 270° (W) 03:50:47 437.325
ITAMSAT 1 12 Dec 04:13:20 04:18:32 79° 287° (WNW) 04:23:42 435.822/435.867
STARS 12 Dec 04:19:48 04:24:14 78° 72° (ENE) 04:28:42 437.465
Gurwin Techsat 1B 12 Dec 04:21:49 04:25:43 21° 302° (WNW) 04:29:37 435.225
BEESAT 2 12 Dec 04:24:32 04:28:14 41° 121° (ESE) 04:32:01 435.950
SO-50 12 Dec 04:25:41 04:29:33 28° 244° (WSW) 04:33:20 436.795
KKS-1 12 Dec 04:33:26 04:37:38 39° 262° (W) 04:41:53 437.445
BRITE-PL 12 Dec 04:34:57 04:38:45 18° 88° (E) 04:42:36 437.365/2234.400
RS-15 12 Dec 04:42:23 04:47:12 13° 91° (E) 04:52:05 29.354- 29.394
MOZHAYETS 4 12 Dec 04:56:07 04:58:09 13° 273° (W) 05:00:10
YUBILEINY 12 Dec 05:01:07 05:09:24 42° 68° (ENE) 05:17:37 435.215
AO-7 12 Dec 05:10:49 05:19:11 74° 294° (WNW) 05:27:31 29.400- 29.500
STRAND 1 12 Dec 05:10:52 05:12:54 12° 52° (NE) 05:14:54 437.568
GOMX 1 12 Dec 05:13:53 05:17:35 18° 87° (E) 05:21:14 467.674
CUBESAT XI-V 12 Dec 05:14:20 05:18:43 44° 262° (W) 05:23:10 437.345
BEESAT 3 12 Dec 05:18:20 05:21:55 34° 318° (NW) 05:25:35 437.485
Cubesat XI-IV 12 Dec 05:28:34 05:29:38 11° 84° (E) 05:30:42 437.490
HORYU 2 12 Dec 05:34:28 05:38:28 32° 96° (E) 05:42:26 437.375
Cosmos 2491 12 Dec 05:37:45 05:44:53 29° 80° (E) 05:51:59 435.465 / 435.565
Cosmos 2504 12 Dec 05:39:51 05:47:50 37° 65° (ENE) 05:55:22 435.465 / 435.565
ITAMSAT 1 12 Dec 05:54:31 05:57:11 14° 307° (NW) 05:59:52 435.822/435.867
STARS 12 Dec 05:59:09 06:01:09 13° 272° (W) 06:03:08 437.465
LilacSat-2 12 Dec 05:59:46 06:02:23 18° 92° (E) 06:04:58 437.200
BEESAT 2 12 Dec 06:02:40 06:06:09 28° 320° (NW) 06:09:41 435.950
AIST 1 12 Dec 06:05:26 06:09:42 46° 76° (ENE) 06:13:56
NOAA 18 12 Dec 06:06:12 06:09:24 15° 88° (E) 06:12:35 137.9125
